Location: Drispenstedt
(52.1748°N, 9.9707°E)
Time: 02:23:43
(UTC+00:00)

STARLINK-35715 - Pass Details

Date: 11 December 2025
Orbit: 570 x 574 km, 70.0° (Epoch: 22 April)

Event Time Altitude Azimuth Distance (km) Brightness Sun altitude
Rises 16:08:37 0° 331° (NNW) 2,786 6.3 -8.7°
Reaches altitude 10° 16:11:01 10° 341° (NNW) 1,884 5.3 -9.0°
Maximum altitude 16:14:51 33° 46° (NE) 976 3.4 -9.6°
Drops below altitude 10° 16:18:40 10° 112° (ESE) 1,874 4.9 -10.1°
Sets 16:21:03 0° 122° (ESE) 2,768 5.9 -10.4°
